Temp
-9 -8 -8 -8 -7 -7 -7 -7 -7 -7 -6 -6 -5 -5 -5 -5 -5 -5 -5 -5 -5 -5 -5 -5 -5 -5 -6 -6 -7 -7 -7 -6 -6 -6 -7 -7 -7 -7 -6 -7 -5 -5 -4 -4 -4
-9 -9 -8 -8 -8 -8 -7 -7 -7 -7 -7 -6 -6 -5 -6 -6 -6 -5 -5 -5 -5 -5 -5 -5 -5 -5 -6 -6 -7 -7 -7 -7 -6 -7 -7 -8 -8 -7 -6 -6 -5 -4 -4 -4 -4
-9 -9 -9 -8 -8 -8 -7 -7 -7 -6 -6 -6 -6 -6 -6 -6 -6 -6 -5 -5 -5 -5 -5 -5 -5 -5 -5 -6 -7 -8 -8 -8 -8 -9 -9 -8 -8 -7 -7 -6 -5 -5 -4 -4 -4
-9 -9 -9 -9 -8 -8 -8 -7 -7 -7 -7 -6 -6 -6 -6 -6 -6 -6 -5 -5 -5 -5 -5 -5 -5 -5 -5 -6 -7 -8 -7 -7 -8 -9 -9 -9 -8 -7 -7 -6 -5 -5 -4 -4 -5
-10 -10 -9 -9 -9 -8 -8 -8 -7 -7 -7 -6 -6 -6 -6 -6 -6 -6 -5 -5 -5 -5 -5 -5 -5 -5 -5 -6 -6 -8 -7 -6 -6 -7 -9 -9 -8 -7 -7 -6 -5 -5 -5 -5 -5
-9 -9 -9 -10 -9 -8 -8 -8 -7 -7 -7 -6 -6 -6 -6 -6 -6 -6 -6 -5 -5 -5 -5 -5 -5 -6 -6 -6 -6 -7 -7 -6 -5 -7 -9 -9 -8 -7 -7 -6 -5 -5 -5 -5 -5
-9 -9 -9 -10 -9 -9 -9 -8 -7 -7 -7 -7 -6 -6 -6 -6 -6 -6 -6 -6 -5 -5 -5 -5 -5 -5 -5 -5 -6 -6 -6 -5 -6 -6 -9 -9 -8 -7 -7 -6 -7 -7 -7 -6 -6
-8 -8 -9 -9 -9 -9 -9 -8 -8 -7 -7 -7 -6 -7 -6 -6 -6 -6 -6 -6 -6 -5 -6 -5 -5 -6 -5 -5 -5 -6 -6 -6 -6 -6 -8 -9 -8 -6 -6 -7 -8 -8 -7 -7 -6
-8 -8 -8 -8 -8 -9 -9 -9 -8 -8 -7 -7 -7 -7 -6 -6 -6 -6 -6 -6 -6 -6 -6 -5 -5 -5 -6 -6 -5 -5 -5 -6 -6 -6 -7 -8 -8 -8 -8 -8 -8 -8 -7 -7 -6
-7 -7 -8 -8 -8 -8 -9 -9 -9 -8 -8 -7 -7 -7 -7 -7 -6 -6 -6 -6 -6 -6 -6 -6 -6 -6 -6 -6 -5 -6 -6 -7 -7 -7 -8 -8 -7 -8 -8 -8 -8 -7 -7 -7 -7
-8 -7 -7 -8 -8 -8 -9 -9 -9 -8 -9 -8 -8 -8 -7 -7 -7 -7 -6 -6 -6 -6 -6 -6 -6 -6 -6 -6 -6 -6 -6 -6 -7 -8 -8 -8 -8 -8 -8 -8 -8 -7 -6 -7 -7
-8 -8 -8 -7 -8 -8 -8 -9 -9 -8 -9 -9 -8 -9 -8 -7 -7 -7 -7 -6 -6 -6 -6 -6 -6 -7 -6 -7 -7 -7 -7 -7 -7 -8 -8 -8 -8 -8 -8 -8 -8 -7 -7 -7 -8
-8 -8 -8 -8 -8 -8 -9 -9 -9 -8 -9 -9 -9 -9 -9 -8 -8 -8 -7 -7 -7 -7 -6 -7 -7 -7 -7 -7 -7 -7 -7 -7 -6 -8 -8 -8 -8 -8 -8 -8 -8 -8 -7 -6 -7
-8 -8 -8 -8 -8 -8 -9 -8 -9 -9 -8 -10 -9 -9 -9 -8 -8 -8 -8 -8 -7 -7 -7 -7 -7 -7 -7 -7 -7 -7 -7 -7 -7 -8 -8 -8 -8 -8 -8 -8 -8 -8 -7 -7 -7
-8 -8 -8 -8 -8 -9 -9 -9 -9 -9 -9 -9 -9 -9 -9 -9 -8 -8 -8 -8 -8 -8 -7 -8 -8 -9 -8 -8 -7 -7 -7 -7 -7 -7 -8 -8 -8 -7 -8 -7 -7 -8 -8 -8 -8
-8 -8 -8 -8 -9 -10 -9 -9 -10 -10 -9 -9 -9 -10 -9 -9 -9 -8 -9 -8 -9 -8 -8 -8 -8 -9 -9 -8 -8 -7 -7 -8 -8 -7 -7 -8 -8 -7 -7 -8 -8 -8 -7 -8 -8
-8 -8 -8 -8 -11 -10 -9 -10 -10 -9 -10 -10 -10 -10 -10 -9 -9 -9 -9 -8 -8 -8 -8 -8 -8 -8 -9 -9 -8 -7 -8 -8 -8 -8 -7 -8 -8 -8 -8 -8 -8 -7 -8 -9 -9
-9 -9 -9 -10 -13 -11 -10 -11 -9 -11 -11 -12 -10 -10 -10 -10 -9 -9 -9 -9 -9 -8 -9 -8 -9 -9 -8 -8 -8 -9 -9 -9 -9 -8 -8 -8 -8 -9 -9 -8 -8 -8 -8 -8 -8
-14 -13 -13 -15 -16 -13 -11 -10 -9 -12 -12 -11 -11 -10 -9 -10 -10 -9 -9 -9 -9 -9 -9 -9 -10 -9 -11 -11 -11 -10 -9 -9 -10 -9 -10 -9 -9 -10 -10 -8 -8 -8 -8 -9 -8
-18 -18 -17 -17 -18 -15 -13 -9 -11 -12 -12 -12 -12 -11 -10 -10 -10 -10 -9 -9 -9 -9 -10 -10 -10 -11 -10 -11 -11 -10 -10 -10 -10 -10 -10 -10 -10 -9 -10 -10 -9 -9 -9 -9 -9
-18 -18 -18 -18 -17 -16 -12 -10 -12 -13 -13 -13 -13 -12 -12 -11 -11 -10 -9 -10 -10 -10 -10 -11 -11 -11 -11 -11 -11 -11 -11 -11 -11 -11 -11 -10 -10 -9 -9 -10 -9 -9 -9 -9 -9
-19 -18 -19 -20 -19 -17 -13 -13 -13 -13 -13 -13 -13 -11 -12 -12 -12 -12 -11 -11 -11 -10 -10 -11 -12 -12 -12 -12 -11 -10 -11 -11 -11 -11 -11 -10 -10 -10 -9 -9 -9 -9 -9 -9 -10
-20 -19 -20 -19 -18 -16 -15 -14 -14 -13 -13 -13 -13 -13 -12 -13 -12 -12 -12 -12 -12 -11 -12 -12 -11 -12 -12 -12 -11 -11 -11 -11 -11 -11 -11 -11 -10 -10 -10 -10 -10 -10 -10 -10 -10
-20 -19 -19 -19 -17 -16 -16 -14 -15 -14 -14 -13 -13 -12 -13 -13 -12 -12 -12 -12 -12 -13 -11 -11 -11 -11 -12 -12 -11 -11 -12 -12 -12 -12 -12 -11 -11 -10 -10 -10 -11 -10 -10 -11 -11
-19 -19 -18 -18 -18 -17 -16 -16 -16 -15 -14 -13 -12 -12 -13 -13 -13 -13 -13 -13 -12 -13 -12 -12 -12 -12 -12 -12 -12 -11 -12 -12 -12 -12 -12 -11 -11 -10 -10 -10 -10 -10 -11 -11 -11
-19 -18 -18 -18 -18 -18 -17 -16 -16 -15 -14 -13 -12 -13 -13 -13 -13 -12 -13 -12 -12 -12 -12 -12 -12 -12 -11 -11 -12 -12 -11 -12 -12 -12 -11 -11 -11 -11 -11 -11 -11 -10 -10 -10 -11
-18 -18 -18 -18 -18 -18 -16 -17 -17 -16 -14 -13 -13 -13 -13 -12 -13 -13 -12 -12 -12 -12 -12 -12 -12 -12 -12 -12 -12 -12 -12 -12 -12 -12 -12 -12 -12 -12 -12 -12 -11 -11 -11 -11 -11
Height
5870 5872 5872 5874 5876 5877 5879 5881 5884 5885 5886 5889 5891 5894 5897 5900 5902 5903 5904 5906 5907 5908 5908 5908 5909 5911 5912 5914 5917 5919 5919 5918 5918 5916 5919 5919 5913 5919 5922 5920 5918 5915 5914 5912 5913
5866 5868 5869 5871 5872 5872 5874 5876 5879 5882 5883 5884 5886 5889 5892 5896 5898 5901 5903 5903 5905 5906 5907 5907 5908 5910 5911 5913 5915 5917 5917 5916 5915 5914 5915 5919 5916 5920 5925 5922 5919 5916 5914 5912 5913
5862 5863 5864 5866 5867 5869 5870 5871 5874 5877 5879 5881 5882 5884 5888 5892 5894 5898 5900 5901 5903 5905 5906 5907 5908 5908 5909 5912 5914 5916 5916 5914 5912 5912 5915 5917 5914 5920 5924 5922 5919 5917 5916 5914 5914
5856 5857 5858 5860 5861 5863 5865 5867 5869 5872 5875 5876 5878 5880 5883 5887 5891 5894 5896 5898 5900 5902 5904 5905 5906 5907 5909 5911 5912 5913 5913 5912 5909 5911 5913 5915 5915 5919 5924 5924 5920 5919 5917 5916 5915
5848 5850 5851 5853 5855 5856 5858 5861 5864 5867 5869 5871 5873 5876 5879 5883 5885 5887 5891 5894 5896 5899 5901 5903 5905 5905 5907 5909 5909 5912 5912 5911 5911 5911 5916 5918 5917 5917 5923 5923 5920 5919 5918 5916 5915
5840 5841 5843 5845 5846 5848 5851 5854 5857 5860 5862 5865 5868 5871 5875 5878 5881 5882 5885 5888 5892 5895 5897 5900 5902 5903 5905 5907 5908 5910 5910 5911 5913 5910 5912 5914 5916 5917 5921 5923 5921 5919 5917 5916 5914
5832 5835 5836 5837 5839 5840 5842 5846 5850 5852 5855 5859 5862 5865 5869 5873 5875 5876 5880 5883 5887 5890 5893 5895 5897 5900 5901 5902 5905 5906 5909 5910 5913 5912 5913 5912 5914 5915 5920 5920 5919 5918 5918 5915 5914
5825 5826 5827 5829 5831 5832 5835 5837 5841 5845 5848 5852 5856 5860 5862 5867 5869 5871 5875 5879 5881 5885 5888 5890 5893 5896 5898 5901 5903 5904 5908 5909 5911 5912 5913 5910 5911 5914 5917 5918 5918 5916 5917 5916 5914
5818 5820 5821 5822 5824 5825 5828 5830 5833 5837 5841 5845 5849 5854 5855 5861 5864 5866 5870 5873 5876 5879 5882 5885 5889 5893 5896 5899 5902 5903 5905 5907 5911 5912 5911 5911 5911 5915 5914 5915 5915 5917 5918 5916 5914
5811 5812 5813 5814 5816 5819 5822 5823 5826 5829 5834 5837 5841 5847 5850 5852 5858 5859 5863 5866 5871 5874 5877 5881 5884 5888 5892 5896 5900 5902 5903 5906 5908 5912 5910 5909 5909 5908 5909 5911 5914 5916 5916 5916 5916
5802 5804 5805 5806 5809 5812 5815 5817 5822 5824 5827 5831 5836 5839 5843 5845 5851 5856 5857 5860 5864 5868 5872 5874 5879 5885 5888 5892 5894 5896 5899 5901 5902 5903 5903 5905 5904 5904 5906 5908 5910 5910 5907 5915 5913
5791 5793 5796 5799 5801 5804 5807 5809 5813 5816 5823 5825 5830 5832 5835 5839 5844 5847 5851 5855 5858 5863 5864 5870 5877 5879 5880 5884 5888 5890 5893 5898 5899 5900 5898 5900 5900 5901 5904 5907 5907 5907 5908 5911 5911
5780 5782 5785 5788 5792 5795 5799 5801 5804 5808 5816 5818 5824 5827 5829 5833 5838 5841 5845 5848 5852 5855 5859 5866 5869 5872 5875 5878 5883 5886 5889 5892 5896 5894 5895 5896 5898 5900 5901 5902 5904 5903 5904 5906 5906
5767 5770 5773 5777 5782 5784 5787 5792 5798 5804 5810 5816 5820 5822 5824 5830 5834 5835 5839 5842 5846 5850 5854 5859 5862 5865 5870 5873 5876 5879 5884 5887 5890 5890 5893 5892 5895 5896 5897 5899 5899 5899 5900 5900 5899
5751 5756 5760 5764 5769 5772 5778 5784 5792 5797 5803 5810 5812 5815 5818 5825 5825 5831 5833 5835 5841 5845 5850 5856 5857 5861 5864 5870 5871 5877 5878 5880 5882 5886 5888 5890 5891 5896 5893 5895 5895 5893 5891 5891 5890
5735 5739 5745 5751 5754 5758 5765 5774 5781 5790 5794 5803 5807 5810 5813 5818 5821 5824 5827 5831 5835 5837 5844 5847 5849 5850 5856 5862 5865 5871 5874 5874 5877 5881 5884 5891 5888 5890 5895 5895 5892 5888 5887 5886 5884
5716 5722 5728 5734 5737 5742 5752 5762 5770 5776 5790 5795 5800 5804 5807 5811 5815 5818 5823 5826 5829 5832 5839 5842 5844 5847 5851 5856 5860 5864 5868 5871 5875 5877 5883 5884 5884 5889 5887 5887 5885 5883 5883 5884 5883
5692 5700 5707 5715 5716 5726 5737 5749 5758 5776 5781 5786 5790 5795 5802 5805 5809 5814 5818 5821 5824 5827 5832 5837 5841 5843 5848 5853 5858 5861 5863 5866 5869 5873 5877 5879 5883 5880 5882 5881 5879 5873 5870 5868 5871
5667 5676 5688 5695 5697 5706 5720 5734 5751 5767 5771 5775 5781 5789 5794 5799 5804 5808 5814 5818 5820 5823 5828 5833 5836 5840 5843 5848 5852 5854 5855 5863 5862 5866 5870 5876 5876 5874 5873 5874 5872 5872 5870 5869 5870
5652 5662 5677 5675 5679 5688 5704 5726 5744 5758 5762 5770 5775 5784 5789 5794 5797 5802 5808 5813 5816 5820 5824 5829 5834 5836 5840 5845 5847 5849 5853 5855 5855 5859 5862 5867 5867 5867 5867 5867 5866 5866 5864 5864 5865
5636 5652 5662 5660 5662 5673 5693 5717 5738 5747 5756 5761 5767 5771 5782 5787 5794 5799 5805 5809 5812 5817 5821 5825 5830 5834 5836 5839 5843 5846 5848 5850 5852 5854 5857 5860 5859 5857 5859 5859 5859 5858 5857 5857 5857
5617 5636 5639 5643 5652 5666 5686 5710 5728 5735 5748 5757 5762 5765 5776 5783 5786 5791 5799 5805 5809 5813 5817 5821 5826 5829 5832 5835 5838 5840 5841 5844 5846 5851 5852 5855 5853 5850 5853 5854 5853 5853 5851 5851 5849
5604 5621 5627 5635 5644 5661 5685 5702 5717 5729 5740 5750 5755 5765 5772 5777 5783 5788 5794 5801 5806 5809 5813 5817 5821 5826 5830 5835 5835 5836 5836 5838 5841 5845 5847 5850 5846 5845 5848 5849 5850 5850 5848 5845 5843
5600 5614 5621 5636 5652 5665 5682 5696 5711 5723 5733 5744 5751 5756 5768 5774 5779 5783 5789 5795 5801 5806 5812 5816 5820 5826 5828 5830 5832 5833 5834 5835 5837 5840 5840 5841 5841 5842 5843 5843 5843 5841 5841 5838 5836
5606 5616 5626 5634 5643 5658 5675 5690 5705 5714 5726 5739 5749 5755 5763 5769 5775 5780 5786 5792 5797 5801 5807 5811 5816 5820 5822 5825 5827 5829 5831 5831 5832 5833 5835 5835 5835 5836 5836 5836 5837 5835 5835 5834 5830
5608 5613 5620 5631 5644 5654 5668 5681 5697 5708 5720 5733 5746 5752 5757 5763 5770 5775 5781 5788 5792 5797 5803 5807 5811 5815 5816 5817 5820 5823 5825 5825 5826 5826 5828 5829 5829 5830 5830 5829 5829 5828 5828 5827 5824
5614 5618 5624 5633 5645 5656 5670 5683 5699 5706 5719 5731 5741 5747 5753 5761 5765 5772 5778 5784 5788 5794 5798 5802 5806 5809 5811 5813 5814 5817 5820 5822 5822 5822 5823 5825 5825 5824 5825 5824 5823 5822 5820 5817 5813
Wind_Speed
18 18 17 19 20 20 20 19 20 19 20 25 29 26 24 19 15 13 13 11 10 7 5 5 10 14 16 20 16 12 11 6 17 14 11 10 17 15 22 19 8 5 7 11 11
21 19 18 20 20 18 20 20 21 20 18 19 25 27 26 22 19 17 15 15 13 11 7 6 11 15 19 22 15 14 9 8 9 10 9 14 12 17 17 14 11 7 10 12 11
24 23 21 21 21 21 21 20 21 22 21 19 18 21 23 22 24 18 16 18 16 13 12 7 4 15 21 22 18 18 15 12 15 13 17 17 16 18 15 13 8 8 8 10 11
27 27 25 25 24 24 24 24 22 22 22 22 19 18 19 20 24 21 19 19 20 17 16 13 9 9 18 20 24 23 21 17 17 12 14 21 21 21 13 11 9 7 5 8 9
33 31 30 30 29 27 26 26 26 25 23 23 21 20 18 17 18 24 24 22 22 21 19 17 12 10 15 23 27 26 25 19 11 15 0 22 30 24 11 7 6 7 3 6 7
33 34 33 33 33 33 30 29 28 27 25 25 24 22 19 17 15 20 25 25 23 24 22 19 18 14 16 25 27 32 30 28 19 18 18 15 24 22 11 7 7 9 8 8 8
32 32 32 32 32 32 33 32 31 30 28 27 26 24 21 19 17 22 25 26 25 26 26 25 23 20 21 24 29 33 31 26 22 17 21 21 24 22 19 14 8 12 17 12 11
32 33 33 30 29 29 30 33 32 33 31 29 29 26 25 21 19 23 23 25 26 26 28 28 26 23 22 18 21 28 26 28 24 22 24 21 23 18 12 13 14 11 12 13 13
29 30 34 32 30 27 28 30 31 32 32 33 30 28 28 22 22 23 23 25 26 28 29 31 28 25 22 17 18 17 20 26 24 15 18 20 19 7 11 14 12 15 11 13 11
28 30 31 31 32 30 28 28 27 26 29 33 32 30 28 26 23 24 24 26 28 29 29 29 29 28 24 21 17 14 14 17 18 13 10 9 11 12 15 20 20 12 15 14 14
32 32 31 33 32 32 31 30 27 25 23 27 27 28 24 25 23 23 27 26 29 29 28 31 29 26 23 20 18 18 18 19 23 19 16 16 16 19 17 23 24 24 17 13 23
37 36 35 33 35 34 35 33 30 30 23 24 20 22 24 24 24 26 27 25 25 28 32 31 25 27 29 25 24 21 19 22 27 24 23 18 18 16 25 24 23 24 20 21 23
45 43 40 37 36 37 37 37 36 33 26 26 21 21 22 22 24 26 26 26 26 30 30 27 30 31 30 28 26 23 23 30 28 30 25 18 20 19 21 23 24 29 27 22 25
47 46 45 44 39 40 39 40 39 36 30 25 21 23 24 23 21 24 25 27 28 27 27 27 32 31 29 31 30 29 28 29 30 33 28 24 25 23 22 25 29 33 25 17 19
49 49 47 46 45 44 44 42 39 38 34 28 25 25 25 20 26 21 23 26 26 27 28 25 28 27 29 29 33 31 30 32 32 31 36 29 29 24 26 24 25 29 29 24 24
56 56 53 50 50 49 47 43 43 41 37 30 27 24 25 22 25 24 23 24 25 29 27 31 34 35 32 33 34 31 32 32 30 28 30 28 35 29 20 19 21 27 27 24 22
59 58 57 55 52 54 51 46 46 44 34 34 26 23 25 26 26 25 22 24 28 29 25 30 35 34 32 30 31 32 30 30 28 27 19 23 36 30 23 15 11 14 22 25 22
64 64 61 58 56 58 55 51 49 34 36 26 35 32 25 28 28 26 26 23 25 24 23 29 35 35 32 27 23 25 28 27 25 25 22 22 20 14 12 18 19 19 21 31 34
56 55 54 47 54 62 60 56 49 35 39 42 37 33 30 28 26 29 26 23 22 21 21 23 26 31 24 19 16 20 26 20 27 26 20 21 18 16 19 20 18 23 23 24 27
42 44 38 44 58 64 64 58 48 43 43 36 29 20 22 26 30 30 28 24 22 19 20 22 22 23 22 17 17 12 14 23 22 20 22 22 22 24 18 16 22 28 27 28 31
47 43 37 49 63 65 65 58 50 50 45 40 35 30 23 23 22 26 25 22 21 21 23 23 22 18 20 18 15 13 18 20 22 20 17 20 29 31 30 24 28 33 33 39 38
48 48 46 48 63 64 63 56 59 57 53 43 41 36 30 30 28 21 17 21 17 20 26 27 27 24 23 23 19 15 25 28 26 23 22 23 29 38 37 35 31 31 36 38 41
44 46 49 53 59 59 58 58 58 63 56 52 46 37 33 31 30 22 17 16 14 22 36 31 31 30 26 21 19 19 20 31 34 29 27 27 34 36 31 34 29 30 32 37 41
42 40 47 41 53 55 54 61 58 60 57 56 51 45 41 35 30 30 25 22 22 21 20 25 20 24 26 25 22 24 21 25 27 27 30 35 39 38 37 38 35 32 34 40 39
39 39 34 38 42 60 59 59 56 56 57 58 53 47 46 43 36 36 34 30 29 28 26 19 22 15 25 32 30 28 28 28 31 32 32 30 33 38 43 44 45 44 39 40 43
25 21 25 37 48 51 57 59 57 55 61 61 51 47 51 47 42 39 38 39 37 32 31 28 26 22 18 25 39 37 33 35 35 39 39 38 37 38 42 39 41 43 43 42 42
24 20 29 35 40 55 57 54 54 54 61 60 53 51 51 48 45 41 40 39 34 35 32 25 28 22 18 20 29 36 36 39 40 34 33 35 36 32 37 38 40 34 41 46 43
Wind_Direction
251 251 254 253 245 242 246 249 249 253 251 243 235 243 240 234 234 239 227 218 220 214 169 181 189 188 183 169 160 156 144 157 102 128 43 4 24 354 13 351 358 355 21 25 45
263 260 253 254 255 250 245 243 246 251 250 246 242 240 240 238 235 234 236 222 221 217 203 190 193 188 193 188 187 157 161 117 93 60 30 352 355 318 349 337 341 12 26 29 31
260 261 262 261 258 255 252 246 245 246 246 244 240 239 241 239 240 236 237 231 224 219 214 211 221 206 202 199 190 163 152 136 89 43 354 325 321 300 340 341 346 357 24 30 26
262 263 263 260 259 260 256 253 249 247 243 243 241 239 236 235 236 232 235 236 227 221 212 207 194 216 219 199 191 178 174 168 129 95 331 296 283 286 348 336 9 351 39 38 12
264 265 265 265 261 255 256 256 252 249 247 243 240 239 238 233 234 229 230 230 230 222 218 211 206 198 219 205 206 196 193 198 185 153 189 254 262 277 318 326 17 4 17 39 17
260 261 262 263 262 259 254 254 254 251 250 250 244 240 241 239 230 226 223 224 223 223 219 215 206 201 199 211 218 209 220 235 256 169 172 259 258 270 279 306 7 18 16 355 353
260 259 259 259 258 255 256 252 251 253 251 250 248 246 245 236 231 228 223 219 219 221 219 218 213 207 204 214 214 222 223 240 247 203 181 213 243 253 264 279 317 8 357 360 338
259 259 260 258 258 257 254 252 248 249 251 249 248 247 245 232 231 232 223 222 217 218 218 219 219 213 214 225 226 230 233 240 245 222 192 221 243 262 284 288 273 289 343 345 339
265 262 256 254 254 256 254 250 247 246 250 251 248 245 243 240 230 233 225 223 219 218 218 220 217 220 221 216 223 230 233 241 250 242 216 221 236 269 297 308 280 305 311 331 324
260 259 260 257 253 250 249 247 247 243 242 245 245 241 239 238 236 233 228 222 222 219 220 222 218 219 217 218 221 227 226 225 225 193 200 227 263 277 299 304 297 275 313 300 317
260 258 257 255 253 249 247 245 241 243 240 239 235 241 234 233 232 236 233 224 223 222 220 222 220 220 218 220 216 217 218 198 169 178 212 226 246 279 287 293 298 300 255 296 294
264 260 255 250 251 247 244 244 241 243 232 237 231 229 233 230 231 234 233 227 225 220 222 222 219 217 215 215 219 207 216 206 184 185 213 220 248 246 258 275 292 294 280 297 289
264 265 258 251 245 245 240 241 238 241 232 237 228 225 233 229 226 228 231 226 217 219 220 218 216 218 214 211 223 216 208 203 206 199 212 222 238 237 264 273 278 290 289 294 291
260 259 259 254 246 242 239 237 237 238 233 225 220 221 229 230 227 231 226 222 219 217 216 213 219 216 221 216 214 218 210 211 210 203 204 222 234 235 244 257 270 281 300 302 295
262 259 256 254 247 240 237 235 233 232 233 221 225 222 227 221 224 223 225 222 217 215 215 203 210 214 218 220 220 215 211 219 223 219 215 216 240 242 255 275 291 290 289 294 301
260 259 255 250 245 237 236 231 227 227 223 221 224 227 231 221 224 223 224 216 210 213 208 212 209 211 214 219 223 223 222 225 230 234 232 229 239 252 260 284 273 279 280 291 301
260 256 254 249 236 235 233 225 223 224 220 221 219 222 224 214 220 220 222 220 218 213 205 211 217 217 215 217 226 232 228 233 235 236 240 230 237 257 237 233 251 251 265 281 284
261 257 249 242 230 230 228 219 220 213 216 203 217 217 213 216 214 215 218 214 212 210 209 210 211 221 227 234 244 245 246 240 240 239 234 221 224 259 244 235 226 223 229 243 257
254 246 239 230 219 221 219 216 215 193 210 213 219 217 210 209 209 214 214 208 207 204 206 206 207 217 202 196 227 235 233 234 238 234 232 222 219 249 264 246 249 234 234 240 248
244 236 228 220 211 214 212 211 195 182 200 197 198 185 199 202 206 205 208 206 199 201 204 205 184 195 205 201 215 223 230 217 224 208 216 210 229 228 236 242 246 244 239 242 248
237 225 217 210 210 209 207 202 179 178 182 182 188 176 170 180 199 209 209 201 200 203 193 196 188 195 193 220 222 217 226 231 226 217 217 209 225 230 229 229 242 251 260 246 246
222 211 209 204 211 212 202 187 174 178 175 177 181 178 179 183 181 174 193 202 194 197 196 193 182 183 191 207 228 217 222 226 229 221 223 212 220 233 235 238 241 249 258 261 260
200 198 205 206 212 204 189 179 172 179 178 177 173 170 185 197 192 166 174 181 189 193 182 198 197 189 199 210 175 178 194 211 224 230 232 222 231 231 230 231 237 250 255 257 265
181 189 200 207 204 203 188 177 172 179 182 182 177 177 184 195 200 183 192 191 203 209 205 213 221 219 224 215 218 195 208 220 226 230 233 231 234 239 244 254 259 257 257 261 271
185 192 195 208 205 192 182 177 171 179 184 183 186 184 186 193 196 195 196 200 206 214 224 227 236 226 226 225 222 218 214 228 235 238 242 251 246 244 247 252 253 260 267 277 282
179 186 192 188 193 183 180 177 174 181 183 183 189 186 193 197 199 194 197 208 211 215 220 226 227 235 238 235 233 236 230 228 234 241 247 251 255 252 253 251 256 262 263 270 274
159 166 169 176 181 179 177 177 174 186 185 188 187 187 197 200 200 201 206 210 217 216 222 232 231 229 244 240 243 243 242 236 247 251 249 255 258 256 255 259 258 263 275 271 273